Waarnemingen

Advertentie
Mijn weer
Grünow, Duitsland (10289): temperatuur & dauwpunt: 17.05.2018 22:00:00 - 23.05.2018 22:00:00 (CEST)Grünow, Duitsland (10289): temperatuur 5cm & temperatuur -5cm: 17.05.2018 22:00:00 - 23.05.2018 22:00:00 (CEST)Grünow, Duitsland (10289): temperatuur -20cm & temperatuur -100cm: 17.05.2018 22:00:00 - 23.05.2018 22:00:00 (CEST)Grünow, Duitsland (10289): windsnelheid & windstoten: 17.05.2018 22:00:00 - 23.05.2018 22:00:00 (CEST)Grünow, Duitsland (10289): windrichting: 17.05.2018 22:00:00 - 23.05.2018 22:00:00 (CEST)Grünow, Duitsland (10289): luchtdruk: 17.05.2018 22:00:00 - 23.05.2018 22:00:00 (CEST)Grünow, Duitsland (10289): zicht: 17.05.2018 22:00:00 - 23.05.2018 22:00:00 (CEST)Grünow, Duitsland (10289): Zonneschijnduur: 17.05.2018 22:00:00 - 23.05.2018 22:00:00 (CEST)Grünow, Duitsland (10289): neerslag: 17.05.2018 22:00:00 - 23.05.2018 22:00:00 (CEST)
Datum & Tijd tt [°C] td [°C] tt 5cm [°C] tt -5cm [°C] tt -20cm [°C] tt -100cm [°C] ff [km/u] ff [kn] fx [km/u] fx [kn] dd ppp [hPa] vv [km] sd [min] rr [mm]
23.05.2018 22:00:00 15,1 8,0 13,2 20,2 21,1 14,5 11 6 19 11 NO 1024,5 70 3 0,0
23.05.2018 21:00:00 16,2 8,2 15,3 21,9 21,4 14,5 15 8 27 14 NNO 1023,8 70 50 0,0
23.05.2018 20:00:00 18,4 9,3 19,1 24,0 21,6 14,5 18 10 30 16 NNO 1023,4 66 58 0,0
23.05.2018 19:00:00 19,7 9,4 21,5 26,0 21,7 14,5 24 13 37 20 NNO 1022,9 29 60 0,0
23.05.2018 18:00:00 21,4 9,1 24,6 28,1 21,5 14,5 24 13 34 18 NNO 1022,8 51 60 0,0
23.05.2018 17:00:00 22,8 9,6 27,7 29,5 21,1 14,5 18 10 29 16 NNO 1022,8 33 60 0,0
23.05.2018 16:00:00 23,0 8,2 28,7 30,3 20,5 14,5 15 8 27 15 NO 1022,9 27 60 0,0
23.05.2018 15:00:00 23,2 7,0 29,3 29,7 19,9 14,5 15 8 27 14 NO 1022,9 33 60 0,0
23.05.2018 14:00:00 22,4 7,1 30,5 28,9 19,2 14,4 13 7 29 16 NO 1023,1 37 60 0,0
23.05.2018 13:00:00 22,1 7,4 28,8 27,2 18,6 14,4 15 8 30 16 ONO 1023,1 46 60 0,0
23.05.2018 12:00:00 20,8 6,4 26,5 25,7 17,9 14,4 16 9 27 15 NO 1022,8 70 60 0,0
23.05.2018 11:00:00 20,0 7,5 25,0 23,3 17,4 14,4 13 7 23 12 ONO 1022,6 70 60 0,0
23.05.2018 10:00:00 18,3 7,5 22,5 20,5 17,0 14,4 14 8 23 12 NO 1022,7 44 60 0,0
23.05.2018 09:00:00 16,5 7,9 20,4 17,7 16,9 14,4 12 7 19 11 NO 1022,4 52 60 0,0
23.05.2018 08:00:00 14,4 8,4 17,0 15,3 17,0 14,4 7 4 16 9 NO 1022,0 54 60 0,0
23.05.2018 07:00:00 11,7 7,6 12,4 14,1 17,3 14,3 10 5 16 9 NO 1021,3 33 60 0,0
23.05.2018 06:00:00 10,1 6,8 9,1 14,0 17,7 14,3 9 5 16 9 ONO 1020,6 28 39 0,0
23.05.2018 05:00:00 9,3 6,7 7,7 14,4 18,1 14,3 11 6 14 8 NO 1020,0 29 0 0,0
23.05.2018 04:00:00 10,2 7,0 8,5 14,9 18,5 14,3 10 5 16 9 NO 1019,8 30 0 0,0
23.05.2018 03:00:00 10,0 7,3 7,8 15,6 18,9 14,3 11 6 14 8 NNO 1019,6 25 0 0,0
23.05.2018 02:00:00 11,3 8,5 9,0 16,3 19,4 14,3 8 5 14 7 NO 1019,2 37 0 0,0
23.05.2018 01:00:00 12,0 8,8 10,5 17,1 19,8 14,3 10 5 15 8 NO 1018,8 46 0 0,0
23.05.2018 00:00:00 11,7 8,8 8,5 18,1 20,3 14,2 5 3 15 8 NNO 1018,5 41 0 0,0
22.05.2018 23:00:00 13,5 9,1 12,1 19,3 20,8 14,2 11 6 19 10 NO 1018,1 45 0 0,0
22.05.2018 22:00:00 14,7 8,1 13,4 20,7 21,2 14,2 11 6 19 10 NO 1017,7 56 0 0,0
22.05.2018 21:00:00 16,8 6,1 15,7 22,7 21,6 14,2 13 7 22 12 NO 1017,1 70 52 0,0
22.05.2018 20:00:00 19,4 7,1 19,7 25,4 21,7 14,2 17 9 23 13 NNO 1016,5 70 60 0,0
22.05.2018 19:00:00 22,3 6,8 24,8 27,4 21,6 14,2 6 3 11 6 O 1015,8 70 60 0,0
22.05.2018 18:00:00 22,5 5,9 26,8 29,0 21,3 14,2 5 3 21 11 ONO 1015,8 70 60 0,0
22.05.2018 17:00:00 23,3 6,0 28,4 30,1 20,8 14,2 5 3 18 10 O 1015,8 52 60 0,0
22.05.2018 16:00:00 22,9 5,0 29,1 30,4 20,2 14,2 5 3 16 9 O 1015,9 51 60 0,0
22.05.2018 15:00:00 22,4 4,9 28,3 30,1 19,5 14,2 10 6 22 12 ONO 1016,3 40 60 0,0
22.05.2018 14:00:00 22,0 5,4 27,6 29,2 18,7 14,2 11 6 21 11 ONO 1016,4 27 60 0,0
22.05.2018 13:00:00 21,3 7,0 27,8 27,6 18,0 14,2 8 5 20 11 ONO 1016,6 32 60 0,0
22.05.2018 12:00:00 21,1 6,5 27,5 25,2 17,3 14,2 9 5 16 9 O 1016,8 53 58 0,0
22.05.2018 11:00:00 19,9 7,6 22,7 22,3 16,8 14,2 9 5 15 8 OZO 1017,0 70 52 0,0
22.05.2018 10:00:00 19,3 9,6 22,7 20,1 16,4 14,1 7 4 12 7 OZO 1017,1 70 53 0,0
22.05.2018 09:00:00 18,0 10,0 21,4 17,6 16,3 14,1 3 1 6 4 ZZO 1017,1 70 60 0,0
22.05.2018 08:00:00 14,7 9,2 17,4 14,9 16,3 14,1 3 2 6 3 WNW 1017,1 39 60 0,0
22.05.2018 07:00:00 11,2 7,7 11,8 13,7 16,6 14,1 4 2 13 7 NW 1017,3 32 51 0,0
22.05.2018 06:00:00 8,4 5,8 6,7 13,7 16,9 14,1 4 2 14 8 WNW 1017,4 26 0 0,0
22.05.2018 05:00:00 11,7 6,2 10,0 14,1 17,2 14,1 10 6 16 9 O 1017,3 41 0 0,0
22.05.2018 04:00:00 12,2 6,1 10,7 14,5 17,6 14,1 11 6 18 10 O 1017,5 44 0 0,0
22.05.2018 03:00:00 12,8 6,6 11,1 15,0 17,9 14,1 11 6 16 9 O 1017,7 55 0 0,0
22.05.2018 02:00:00 13,4 6,4 11,6 15,5 18,3 14,1 11 6 14 8 O 1017,9 54 0 0,0
22.05.2018 01:00:00 13,6 6,2 11,3 16,2 18,7 14,0 10 6 13 7 O 1018,3 50 0 0,0
22.05.2018 00:00:00 13,9 6,1 11,2 17,0 19,2 14,0 9 5 13 7 O 1018,6 68 0 0,0
21.05.2018 23:00:00 14,8 5,8 12,2 18,0 19,6 14,0 9 5 14 8 ONO 1018,6 69 0 0,0
21.05.2018 22:00:00 15,9 6,5 13,9 19,3 20,0 14,0 10 5 13 7 O 1018,7 59 0 0,0
21.05.2018 21:00:00 18,0 6,8 14,9 21,1 20,2 14,0 6 4 22 12 O 1018,7 70 52 0,0
21.05.2018 20:00:00 20,4 6,0 20,7 23,1 20,4 14,0 13 7 30 16 O 1018,6 70 60 0,0
21.05.2018 19:00:00 21,6 5,1 22,7 25,1 20,3 14,0 18 10 30 16 O 1018,9 52 60 0,0
21.05.2018 18:00:00 22,3 5,4 24,3 26,6 20,1 14,0 18 10 40 21 O 1019,2 37 60 0,0
21.05.2018 17:00:00 22,4 4,5 25,0 27,7 19,8 14,0 21 12 36 19 OZO 1019,9 38 60 0,0
21.05.2018 16:00:00 22,5 4,2 26,1 28,3 19,3 14,0 21 11 36 19 O 1020,5 38 60 0,0
21.05.2018 15:00:00 22,0 6,1 26,3 28,2 18,6 14,0 18 10 36 19 O 1021,4 53 60 0,0
21.05.2018 14:00:00 21,6 7,2 26,1 27,5 18,0 14,0 22 12 36 19 O 1022,1 28 59 0,0
21.05.2018 13:00:00 21,6 6,8 26,8 26,4 17,2 14,0 19 10 34 19 O 1022,8 39 60 0,0
21.05.2018 12:00:00 20,7 7,4 25,4 24,7 16,5 14,0 18 10 29 16 O 1023,5 26 60 0,0
21.05.2018 11:00:00 19,7 9,1 24,8 22,3 15,9 14,0 11 6 23 12 ONO 1024,3 50 60 0,0
21.05.2018 10:00:00 17,3 7,9 21,3 19,3 15,5 14,0 12 6 20 11 O 1024,8 49 60 0,0
21.05.2018 09:00:00 15,0 7,2 18,0 16,2 15,4 14,0 12 6 18 10 O 1025,2 53 60 0,0
21.05.2018 08:00:00 13,5 7,2 15,5 13,8 15,5 14,0 10 5 17 9 O 1025,5 70 60 0,0
21.05.2018 07:00:00 12,1 5,7 11,5 12,6 15,7 13,9 5 3 14 7 O 1025,4 70 59 0,0
21.05.2018 06:00:00 9,1 5,9 7,2 12,4 16,0 13,9 6 3 13 7 O 1025,5 60 28 0,0
21.05.2018 05:00:00 8,4 5,2 6,3 12,8 16,4 13,9 6 3 21 11 OZO 1025,3 65 0 0,0
21.05.2018 04:00:00 10,3 6,1 9,0 13,1 16,7 13,9 16 9 21 11 OZO 1025,6 61 0 0,0
21.05.2018 03:00:00 9,9 6,6 8,2 13,5 17,1 13,9 11 6 16 9 O 1025,7 60 0 0,0
21.05.2018 02:00:00 7,5 4,7 5,7 14,2 17,6 13,9 6 3 14 8 ONO 1025,8 45 0 0,0
21.05.2018 01:00:00 10,4 5,9 8,6 14,9 18,0 13,9 9 5 16 9 ONO 1025,9 67 0 0,0
21.05.2018 00:00:00 10,6 6,0 9,2 15,8 18,5 13,9 9 5 18 10 ONO 1026,0 67 0 0,0
20.05.2018 23:00:00 11,0 6,6 9,1 16,8 19,0 13,9 11 6 19 10 NO 1025,9 70 0 0,0
20.05.2018 22:00:00 12,2 6,7 10,6 18,3 19,4 13,9 12 6 18 10 NO 1025,7 70 0 0,0
20.05.2018 21:00:00 13,9 7,0 12,3 20,3 19,8 13,9 10 6 16 9 NO 1025,4 70 59 0,0
20.05.2018 20:00:00 16,9 6,1 17,9 22,7 19,9 13,9 10 5 19 11 NO 1025,0 70 60 0,0
20.05.2018 19:00:00 19,1 5,3 21,8 25,1 19,8 13,9 9 5 21 11 ONO 1025,1 70 60 0,0
20.05.2018 18:00:00 20,4 1,3 23,7 26,8 19,5 13,9 11 6 23 13 O 1025,3 63 60 0,0
20.05.2018 17:00:00 20,3 0,5 24,7 27,9 19,1 13,9 10 5 23 12 ONO 1025,7 47 60 0,0
20.05.2018 16:00:00 20,0 0,4 24,9 28,2 18,5 13,9 13 7 25 14 O 1026,0 45 60 0,0
20.05.2018 15:00:00 19,7 -1,2 25,1 28,0 17,8 13,9 14 7 32 17 O 1026,5 36 60 0,0
20.05.2018 14:00:00 19,8 0,9 25,2 27,2 17,0 13,9 15 8 24 13 O 1026,8 40 60 0,0
20.05.2018 13:00:00 18,8 0,6 25,4 25,6 16,2 13,9 9 5 26 14 ONO 1027,1 31 60 0,0
20.05.2018 12:00:00 17,9 1,1 22,7 23,5 15,5 13,9 14 8 29 16 ONO 1027,5 30 60 0,0
20.05.2018 11:00:00 17,4 1,1 21,9 20,9 14,9 13,9 14 8 26 14 O 1027,6 46 60 0,0
20.05.2018 10:00:00 16,3 2,7 20,0 17,9 14,5 13,9 11 6 23 12 O 1027,7 54 60 0,0
20.05.2018 09:00:00 14,5 2,1 17,0 14,8 14,4 13,9 12 7 21 11 O 1027,6 50 60 0,0
20.05.2018 08:00:00 11,8 5,5 14,7 12,1 14,5 13,9 7 4 15 8 ONO 1027,3 70 60 0,0
20.05.2018 07:00:00 8,7 4,9 8,4 10,7 14,7 13,9 8 4 14 7 ONO 1026,8 54 60 0,0
20.05.2018 06:00:00 5,9 3,9 5,1 10,6 15,1 13,9 7 4 16 9 ONO 1026,5 40 32 0,0
20.05.2018 05:00:00 5,1 3,2 3,1 10,9 15,5 13,9 10 5 16 8 NO 1026,1 32 0 0,0
20.05.2018 04:00:00 5,7 3,1 3,4 11,4 16,0 13,9 10 5 15 8 NO 1026,1 43 0 0,0
20.05.2018 03:00:00 6,1 2,8 3,8 12,0 16,4 13,9 7 4 16 9 ONO 1025,9 63 0 0,0
20.05.2018 02:00:00 7,6 2,8 5,5 12,8 16,9 13,9 9 5 14 7 ONO 1026,0 70 0 0,0
20.05.2018 01:00:00 8,0 2,4 5,9 13,6 17,4 13,9 10 5 16 9 NO 1025,6 70 0 0,0
20.05.2018 00:00:00 8,9 3,3 6,1 14,7 17,9 13,9 9 5 16 9 NO 1025,4 70 0 0,0
19.05.2018 23:00:00 9,7 4,1 6,9 15,9 18,4 13,9 9 5 16 9 NO 1024,9 70 0 0,0
19.05.2018 22:00:00 11,4 4,2 9,6 17,5 18,8 13,9 10 5 16 9 NO 1024,5 70 0 0,0
19.05.2018 21:00:00 13,6 4,3 12,1 19,4 19,1 13,9 11 6 20 11 NO 1023,7 70 48 0,0
19.05.2018 20:00:00 16,1 4,3 16,7 21,7 19,3 13,9 15 8 22 12 NNO 1023,1 70 60 0,0
19.05.2018 19:00:00 17,9 4,3 20,0 24,0 19,2 13,9 16 9 26 14 NNO 1022,9 70 60 0,0
19.05.2018 18:00:00 19,1 4,4 22,2 25,8 19,0 14,0 18 10 32 17 NO 1022,7 58 60 0,0
19.05.2018 17:00:00 19,6 4,8 24,3 27,2 18,5 14,0 17 9 26 14 NO 1022,7 62 60 0,0
19.05.2018 16:00:00 20,2 6,0 26,4 27,7 17,9 14,0 12 7 25 14 NO 1022,6 48 60 0,0
19.05.2018 15:00:00 19,9 4,6 25,4 27,5 17,2 14,0 15 8 26 14 O 1022,8 39 60 0,0
19.05.2018 14:00:00 19,5 4,6 25,7 26,5 16,4 14,0 13 7 27 15 ONO 1023,0 38 60 0,0
19.05.2018 13:00:00 18,7 5,0 24,5 25,0 15,6 14,0 11 6 27 15 ONO 1023,2 51 60 0,0
19.05.2018 12:00:00 17,3 2,4 21,9 22,9 14,9 14,0 13 7 22 12 O 1023,4 64 58 0,0
19.05.2018 11:00:00 15,6 4,9 20,4 20,4 14,3 14,0 10 6 20 11 ONO 1023,6 70 60 0,0
19.05.2018 10:00:00 14,2 4,1 18,3 17,4 13,9 14,0 13 7 21 12 O 1023,5 57 60 0,0
19.05.2018 09:00:00 13,0 4,7 16,6 14,4 13,6 14,0 10 5 17 9 ONO 1023,2 70 60 0,0
19.05.2018 08:00:00 11,6 6,9 14,4 12,0 13,6 14,0 7 4 15 8 ONO 1022,7 44 60 0,0
19.05.2018 07:00:00 9,5 6,4 9,5 10,4 13,8 14,0 9 5 14 8 ONO 1022,2 51 60 0,0
19.05.2018 06:00:00 7,4 6,1 6,1 10,1 14,1 14,0 8 4 13 7 ONO 1021,7 32 16 0,0
19.05.2018 05:00:00 6,2 5,5 2,5 10,3 14,4 14,1 6 3 9 5 NNO 1021,6 26 0 0,0
19.05.2018 04:00:00 7,0 5,4 4,2 10,8 14,7 14,1 6 3 11 6 ONO 1021,4 42 0 0,0
19.05.2018 03:00:00 7,4 5,5 2,8 11,2 15,1 14,1 5 3 8 4 NO 1021,1 57 0 0,0
19.05.2018 02:00:00 6,9 5,3 3,3 11,8 15,4 14,1 3 2 5 3 ONO 1020,9 60 0 0,0
19.05.2018 01:00:00 8,2 5,5 4,2 12,4 15,7 14,1 5 3 9 5 NNO 1021,0 62 0 0,0
19.05.2018 00:00:00 9,2 5,7 6,0 13,3 16,0 14,1 4 2 12 7 NO 1020,8 65 0 0,0
18.05.2018 23:00:00 10,7 5,6 8,2 14,2 16,3 14,1 8 4 13 7 NO 1020,5 70 0 0,0
18.05.2018 22:00:00 11,9 5,8 10,4 15,4 16,5 14,1 10 5 17 9 NO 1020,3 70 0 0,0
18.05.2018 21:00:00 13,2 10,1 12,3 16,4 16,6 14,1 9 5 20 11 NO 1019,9 25 0 0,0
18.05.2018 20:00:00 15,1 12,2 15,4 17,4 16,6 14,1 9 5 18 10 N 1019,3 13 0 0,0
18.05.2018 19:00:00 15,7 12,0 16,7 18,0 16,5 14,1 9 5 15 8 NNW 1019,0 14 0 0,0
18.05.2018 18:00:00 15,7 12,0 17,2 18,2 16,4 14,1 8 5 13 7 NW 1018,8 12 0 0,0
18.05.2018 17:00:00 15,5 11,9 18,0 18,0 16,3 14,1 11 6 14 8 NNW 1018,8 13 0 0,0
18.05.2018 16:00:00 15,1 11,6 16,6 17,7 16,2 14,1 5 3 10 5 N 1018,9 11 0 0,0
18.05.2018 15:00:00 15,2 11,5 17,7 17,7 16,1 14,1 8 4 16 8 NW 1018,8 12 0 0,0
18.05.2018 14:00:00 14,5 11,3 16,4 17,3 15,9 14,1 9 5 16 9 W 1018,8 12 0 0,0
18.05.2018 13:00:00 13,8 11,7 16,0 17,0 15,8 14,1 13 7 20 11 NW 1018,8 10 0 0,0
18.05.2018 12:00:00 12,7 11,9 13,8 15,7 15,8 14,0 9 5 18 10 WNW 1018,7 4,5 0 0,0
18.05.2018 11:00:00 12,6 11,3 13,9 15,5 15,8 14,0 13 7 19 10 NW 1018,4 8 0 0,0
18.05.2018 10:00:00 11,6 10,7 12,5 15,0 15,9 14,0 12 7 22 12 NW 1017,9 6 0 0,0
18.05.2018 09:00:00 11,5 10,7 12,3 14,8 15,9 14,0 13 7 20 11 WNW 1017,5 6 0 0,0
18.05.2018 08:00:00 11,0 10,4 11,7 14,5 16,1 14,0 15 8 22 12 WNW 1016,9 4,4 0 0,0
18.05.2018 07:00:00 10,9 10,0 11,3 14,3 16,2 14,0 13 7 22 12 WNW 1016,6 6 0 0,0
18.05.2018 06:00:00 10,9 9,3 11,0 14,2 16,4 14,0 13 7 19 10 WNW 1016,3 10 0 0,0
18.05.2018 05:00:00 10,3 8,9 10,5 14,1 16,7 14,0 9 5 14 8 WNW 1016,2 11 0 0,0
18.05.2018 04:00:00 9,7 8,8 9,4 14,0 17,0 14,0 10 5 18 10 NW 1016,1 9 0 0,0
18.05.2018 03:00:00 9,9 8,8 9,1 14,3 17,3 14,0 11 6 24 13 NW 1016,0 10 0 0,0
18.05.2018 02:00:00 11,2 9,5 10,5 14,8 17,7 14,0 18 10 30 16 NW 1015,8 12 0 0,0
18.05.2018 01:00:00 10,4 9,2 8,9 15,4 18,1 14,0 11 6 18 10 NNW 1015,6 11 0 0,0
18.05.2018 00:00:00 11,9 9,8 10,4 16,1 18,5 14,0 13 7 24 13 NW 1015,5 14 0 0,0
17.05.2018 23:00:00 11,3 9,0 9,1 16,9 18,9 14,0 10 6 17 9 NW 1015,2 18 0 0,0
17.05.2018 22:00:00 12,7 9,5 10,2 18,1 19,3 14,0 9 5 19 11 NNW 1015,0 22 0 0,0

tt = temperatuur
td = dauwpunt
tt 5cm = temperatuur 5cm
tt -5cm = temperatuur -5cm
tt -20cm = temperatuur -20cm
tt -100cm = temperatuur -100cm
ff = windsnelheid
fx = windstoten
dd = windrichting
ppp = luchtdruk
vv = zicht
sd = Zonneschijnduur
rr = neerslag

Weerstations in de omgeving